Theta_e
308 308 309 310 311 311 311 311 311 312 312 313 313 313 313 314 315 314 319 330 331 330 330 328 329 324 324 323 315 322 316 321 315 307 308 305 305 307 308 308 305 301 299 302 306 301 297 318 315 310 316 318 315 314
308 309 309 310 310 310 310 310 311 311 311 312 313 313 313 313 314 315 316 335 340 331 331 329 334 333 330 328 325 327 321 323 323 317 316 315 308 311 314 305 311 308 307 308 311 311 321 319 319 320 319 315 315 315
308 309 309 310 310 310 310 310 310 311 312 312 312 312 312 313 314 313 315 321 324 325 330 331 327 333 334 333 334 318 322 328 324 333 322 318 310 313 304 305 311 312 316 314 316 316 317 317 317 316 315 314 315 316
308 309 310 310 310 310 310 310 310 311 311 311 311 311 312 313 314 313 315 322 324 327 322 320 327 323 334 333 332 332 331 337 338 329 318 315 318 316 313 313 312 314 319 313 314 315 315 316 316 315 313 314 313 314
308 309 310 310 310 310 310 310 310 310 311 311 311 312 313 313 312 314 316 320 325 323 321 322 328 329 331 332 329 330 333 337 326 321 317 314 319 315 313 313 310 316 315 310 309 316 315 316 315 315 313 313 314 313
308 309 309 309 309 309 309 309 309 310 310 311 311 312 312 312 312 316 319 329 327 328 321 315 329 328 330 331 329 328 328 330 324 319 317 320 326 317 309 309 318 319 321 323 317 319 318 318 317 316 315 315 316 315
309 309 309 309 309 309 308 308 308 309 310 310 310 310 311 311 313 314 317 324 314 330 322 314 313 322 330 328 327 325 334 326 325 321 320 316 318 319 313 309 317 319 320 320 320 319 317 319 316 319 318 319 318 318
308 309 308 308 308 307 306 307 308 309 309 309 309 310 310 310 310 314 320 316 317 328 325 312 312 320 330 322 319 325 319 322 324 323 319 316 319 319 312 313 316 320 320 320 319 319 321 320 320 318 317 316 314 313
308 308 309 308 308 307 307 307 308 309 309 309 309 310 315 314 319 322 319 316 328 328 319 315 310 310 326 322 323 323 323 315 323 318 315 319 313 313 312 312 317 319 319 318 319 318 316 314 314 313 314 313 313 313
308 308 308 308 307 307 307 308 308 309 308 309 312 317 316 321 316 322 326 323 322 324 323 316 321 313 320 319 319 319 319 313 313 315 316 314 314 317 319 322 322 320 317 317 314 313 313 311 312 313 313 314 313 313
308 308 308 307 307 307 308 308 308 308 308 317 318 317 329 316 325 322 320 317 319 313 318 317 317 313 320 315 315 320 314 314 307 313 313 310 312 317 321 318 319 319 318 317 316 315 316 316 315 314 315 317 317 319
307 307 307 307 307 308 308 308 308 308 317 314 311 319 329 321 320 315 312 316 312 310 316 315 316 317 321 324 315 317 311 313 305 318 311 308 312 318 319 319 319 319 318 317 317 316 316 315 317 316 316 315 316 318
306 306 307 307 307 308 308 308 308 308 309 317 318 320 319 318 304 307 304 307 310 315 320 318 316 318 320 319 314 313 307 307 315 309 307 311 315 319 318 318 317 319 318 318 317 317 316 317 317 316 317 319 320 318
306 306 306 306 307 307 307 308 308 309 312 318 316 298 311 306 307 309 310 312 319 321 319 319 317 316 319 315 314 308 311 312 304 303 303 312 314 316 318 317 316 316 317 316 317 316 316 316 315 312 310 311 310 308
305 306 306 306 306 307 307 308 308 313 317 317 317 302 307 313 315 316 318 320 322 322 318 317 317 316 313 311 313 311 307 303 306 305 307 314 315 319 318 317 316 316 316 316 316 312 311 311 310 310 310 310 308 307
305 305 307 308 310 308 307 308 311 318 319 319 317 311 312 311 314 315 316 317 321 320 320 317 312 308 307 309 308 306 304 301 305 312 315 316 319 318 318 317 315 312 312 312 313 310 309 307 307 307 306 304 302 301
303 310 307 308 308 308 308 317 317 316 318 314 312 317 315 314 315 317 317 319 323 317 312 314 306 307 314 308 306 306 303 308 314 316 318 319 315 313 314 311 310 310 308 308 307 305 303 303 303 301 298 299 299 299
308 312 308 308 312 311 316 319 321 319 312 314 312 314 317 316 318 317 318 320 319 315 315 313 317 309 305 301 303 308 312 314 312 311 310 309 308 307 306 306 306 305 304 303 301 299 297 297 296 296 297 296 295 295
311 311 306 306 311 320 317 320 324 311 312 315 317 318 318 318 320 321 320 322 325 325 320 315 307 302 301 304 306 307 307 308 303 304 305 306 306 304 303 303 303 301 301 298 297 295 295 297 296 294 293 292 291 292
303 304 305 306 307 322 317 319 326 316 313 315 317 316 316 319 320 319 319 318 316 315 308 302 297 298 301 303 306 305 306 307 306 302 300 301 302 303 301 300 299 298 297 297 295 291 293 292 292 291 291 291 289 289
302 311 307 312 315 318 319 316 316 318 316 313 317 318 315 317 316 313 311 311 306 302 299 300 299 301 304 304 306 306 304 304 300 298 299 296 299 300 299 299 298 296 295 293 290 290 290 290 290 289 289 289 289 289
320 308 321 319 319 318 317 322 316 318 317 316 314 317 314 311 310 307 306 299 296 296 299 300 302 303 302 301 301 301 301 301 300 298 295 297 296 296 295 296 294 293 292 291 289 290 289 289 289 289 289 288 289 289
311 318 323 318 313 308 307 321 313 315 310 311 315 312 312 311 310 309 296 296 296 297 299 299 301 303 302 301 299 297 298 298 297 297 296 296 296 295 294 294 293 291 289 288 290 290 289 287 289 289 289 288 288 287
308 319 314 311 311 305 314 312 314 312 312 310 310 308 309 309 309 300 291 292 294 295 294 294 295 296 295 294 293 295 295 296 295 295 295 293 292 293 293 292 291 291 290 289 289 289 289 288 287 288 288 287 287 286
305 308 307 298 312 309 307 308 309 309 308 309 308 308 310 311 302 296 290 290 292 291 292 292 292 292 291 294 295 296 297 294 292 292 293 293 292 291 291 290 290 290 290 288 287 288 288 288 288 288 287 287 286 286
296 308 307 307 307 307 307 305 307 307 308 307 308 313 312 304 294 289 289 290 289 289 290 290 290 292 294 295 294 293 294 294 293 290 291 291 291 289 288 287 286 287 289 289 288 287 287 287 287 287 286 286 285 286
299 305 311 316 313 312 310 311 311 309 307 306 309 309 305 294 287 288 291 292 291 292 293 293 293 295 294 294 294 294 294 294 292 291 292 292 292 291 289 287 286 287 289 289 289 288 287 287 286 286 286 286 287 287
310 310 306 311 311 312 308 308 307 307 308 310 306 298 295 293 288 291 292 294 294 295 295 296 297 296 294 294 294 293 292 292 292 292 291 291 291 291 291 290 290 286 289 290 289 289 288 287 287 286 286 286 287 288
310 314 311 306 305 304 303 302 301 302 302 308 300 293 288 290 292 292 294 295 296 296 295 295 294 295 293 293 293 292 292 290 288 286 285 285 285 287 289 289 289 289 289 289 286 286 288 287 287 287 287 287 288 288
309 312 305 301 299 295 295 300 297 300 297 293 291 290 290 291 294 297 296 296 295 294 293 293 293 292 290 289 289 289 291 290 289 287 285 284 285 288 288 288 288 288 289 289 288 288 286 288 287 288 287 286 286 286
313 308 302 300 295 294 295 295 295 295 294 292 293 289 289 292 295 298 298 299 297 294 292 290 291 291 289 288 288 287 286 289 290 290 289 288 288 288 288 288 288 289 289 288 288 288 287 287 286 286 285 285 285 285
310 304 299 296 296 300 301 298 294 293 293 292 292 294 293 292 289 293 297 296 294 292 287 289 289 289 290 291 290 290 285 290 290 290 289 289 288 289 288 288 289 289 288 287 288 287 287 286 285 285 285 285 285 285
305 305 304 301 300 300 301 298 293 290 291 289 289 292 291 291 287 295 299 299 295 293 291 290 291 291 291 291 290 290 288 291 289 284 284 283 283 284 287 289 289 288 287 287 287 287 286 286 285 285 285 285 285 285
Wind_Speed
18 18 17 16 14 13 13 13 14 14 15 16 16 15 15 14 13 7 12 11 5 8 6 15 17 10 9 6 8 11 9 4 5 6 4 7 5 9 4 10 6 4 3 5 2 3 4 8 2 5 5 3 1 3
18 18 17 15 13 13 12 13 14 14 15 15 16 15 15 14 12 7 8 6 3 7 5 5 21 7 6 6 5 7 10 5 5 6 10 2 6 7 10 2 3 6 2 6 7 2 6 7 9 5 4 3 5 5
18 18 17 15 13 13 12 12 14 14 14 15 15 15 15 14 11 6 9 10 7 8 12 15 5 22 5 3 6 5 5 7 4 4 6 8 8 4 3 4 7 2 6 4 2 4 8 5 6 3 3 3 7 5
18 18 16 14 12 12 12 12 14 14 14 15 15 15 15 13 12 8 7 9 9 7 9 4 3 20 6 2 4 3 4 6 6 7 6 8 3 2 5 5 6 9 8 1 6 8 3 6 5 6 6 5 4 5
18 16 14 13 12 12 11 13 14 14 15 15 15 15 14 13 13 11 11 9 10 7 6 2 13 23 8 7 7 3 3 6 8 7 6 3 3 1 7 10 8 8 7 5 4 5 5 6 3 4 5 6 6 5
17 14 13 12 11 11 11 13 13 14 15 15 16 16 14 12 11 7 6 7 10 8 5 8 2 10 12 11 8 6 6 6 8 4 4 7 4 3 6 3 6 9 11 7 4 4 7 3 2 1 4 6 6 7
16 13 12 11 10 9 12 14 15 16 15 15 15 15 13 9 6 7 6 4 9 7 5 6 10 14 11 8 8 9 3 5 11 3 1 1 3 4 5 9 16 15 8 4 6 4 4 6 7 9 9 10 9 11
15 13 11 10 10 12 14 16 16 15 15 15 16 15 13 10 12 9 11 19 7 6 6 6 9 7 10 7 6 2 4 8 8 3 0 1 3 1 6 7 24 10 5 7 11 13 6 7 8 11 12 13 15 14
14 12 11 11 11 11 14 16 15 15 15 15 15 16 5 5 6 2 7 12 4 4 7 6 10 3 4 9 2 3 5 7 5 4 3 3 4 2 8 6 12 12 7 6 5 12 13 12 13 10 14 15 14 14
13 12 11 11 11 13 16 15 14 14 15 13 7 6 6 4 13 6 2 5 5 6 7 10 11 8 5 4 2 3 5 2 6 5 3 9 8 12 10 7 8 8 9 10 9 10 11 11 12 11 10 11 12 12
12 11 11 12 14 15 14 12 11 12 12 6 6 5 5 1 5 4 6 6 8 7 10 11 11 11 5 6 2 3 3 6 8 4 5 6 5 2 5 8 7 7 7 6 7 10 12 19 18 17 17 22 21 24
10 11 12 14 15 14 13 11 6 5 3 4 5 9 3 5 5 7 5 7 6 8 3 6 9 8 1 1 4 6 5 2 1 1 2 4 4 4 9 12 5 5 8 14 9 10 9 2 10 15 14 6 10 9
11 12 13 14 15 14 14 12 12 17 16 6 5 6 5 6 1 7 6 8 7 7 5 5 5 2 4 2 4 2 3 3 8 1 5 4 10 5 7 8 8 8 10 8 15 14 8 19 19 18 17 19 19 17
12 14 14 15 16 16 15 11 10 7 6 6 7 4 5 5 5 9 11 6 3 7 2 2 5 4 3 1 4 2 4 4 1 4 3 3 8 10 12 11 14 14 16 16 18 18 19 20 19 21 19 19 19 19
12 13 13 17 20 20 15 10 11 7 5 6 5 5 7 9 8 2 4 4 0 4 4 2 6 6 2 2 2 3 1 1 5 5 3 6 8 12 13 14 15 15 15 15 16 18 18 18 16 16 17 17 19 19
8 11 14 14 8 12 15 11 7 4 5 5 6 6 8 11 1 2 5 7 2 3 2 2 3 1 2 2 6 5 5 6 5 4 6 7 12 12 12 14 18 18 17 17 17 16 16 17 17 16 16 17 18 18
5 7 12 15 12 13 13 5 7 7 6 5 4 3 6 7 4 6 8 7 3 5 5 2 2 5 7 5 5 4 4 3 8 10 9 11 14 17 17 18 17 16 16 15 14 14 15 16 16 15 17 16 15 14
7 7 10 11 14 9 7 4 5 6 8 7 4 4 12 7 6 6 6 5 3 5 5 5 7 8 7 5 7 7 7 10 13 13 13 15 17 16 13 14 13 12 12 14 16 15 14 13 12 10 11 14 15 15
8 4 4 2 3 3 7 7 6 4 7 6 4 3 8 4 7 7 4 1 3 11 5 7 9 5 5 5 10 12 13 11 9 9 10 14 14 14 14 13 13 13 13 12 10 8 9 9 10 12 12 12 12 12
11 7 6 4 4 5 5 4 6 6 6 5 5 5 6 12 12 12 13 13 12 7 9 8 5 3 6 8 8 9 10 10 8 7 9 7 4 8 12 10 9 10 9 10 11 12 11 11 12 12 12 12 13 13
8 8 7 7 5 6 5 3 5 4 3 4 6 11 10 10 11 12 10 10 11 7 6 5 7 5 6 9 10 9 10 9 9 8 6 8 8 7 6 5 5 5 8 10 11 11 11 11 11 12 12 12 13 13
5 9 4 6 6 5 2 2 2 3 1 1 6 10 9 8 7 7 7 10 6 6 5 7 7 7 8 11 9 10 9 7 8 6 7 4 7 8 9 9 9 10 10 11 11 11 11 11 10 12 12 13 13 13
6 4 4 4 3 2 5 4 4 4 4 6 8 8 5 5 6 8 7 5 4 5 5 4 5 7 9 10 11 10 10 9 7 6 7 7 8 8 8 9 9 9 10 10 10 10 10 11 11 12 13 13 13 13
5 4 2 6 6 3 4 4 4 3 4 8 7 5 8 5 8 6 6 3 4 4 6 8 8 7 7 8 5 7 8 7 8 8 8 9 8 9 9 10 10 9 10 10 10 10 11 12 12 13 14 15 15 15
4 2 4 5 3 6 7 6 5 5 6 4 6 1 5 5 6 6 4 3 4 4 5 5 5 4 3 3 3 6 10 8 8 9 9 10 9 9 9 9 9 9 10 11 11 12 12 12 13 14 15 15 18 19
5 1 2 7 4 6 6 6 6 8 6 4 4 6 5 6 7 6 3 4 4 3 3 4 4 4 3 5 6 7 8 8 8 8 9 10 9 9 9 10 10 9 11 12 12 13 15 15 16 20 18 20 18 19
3 5 4 4 4 2 4 4 4 2 4 4 7 7 5 6 5 4 4 2 2 1 1 1 3 4 5 6 5 7 7 8 9 9 9 9 9 9 9 10 12 11 12 14 13 14 15 16 17 18 18 17 17 16
3 6 9 6 11 11 16 11 10 12 8 8 5 8 6 6 4 3 3 4 3 2 3 5 6 4 5 6 6 6 7 7 8 8 8 8 9 8 10 10 11 9 12 13 13 13 14 16 17 18 19 18 15 15
4 12 14 14 8 9 12 9 8 7 9 5 5 5 4 4 3 4 4 4 4 4 4 4 5 5 5 6 6 7 7 8 11 13 14 10 10 10 11 11 12 12 12 13 12 10 14 14 16 16 19 14 15 14
9 7 8 10 9 8 9 10 11 10 10 8 7 9 9 5 4 4 4 5 4 4 5 5 5 6 7 8 8 8 7 8 8 9 10 11 11 11 12 13 13 13 12 13 14 15 14 15 16 15 15 13 12 14
8 8 8 8 8 11 13 13 13 13 14 14 12 12 8 5 4 5 5 1 4 6 6 6 6 7 7 8 7 8 8 8 10 10 10 9 10 11 12 13 12 12 12 14 14 13 15 15 15 17 17 20 20 19
9 10 10 12 13 13 11 9 9 11 10 10 10 9 8 6 4 2 5 4 5 5 5 6 6 6 7 7 7 7 3 8 9 10 13 9 9 12 12 12 11 12 14 14 13 14 18 18 17 18 17 21 21 21
15 17 19 15 11 8 8 8 5 4 4 3 3 4 5 3 4 1 3 1 4 5 6 6 6 6 7 7 8 7 7 9 8 4 5 5 5 7 10 11 11 13 15 14 15 16 18 22 20 21 20 21 23 21
Wind_Direction
281 282 287 285 284 284 288 294 299 301 303 307 312 320 326 328 331 320 288 269 284 310 352 327 302 319 325 331 339 0 322 86 62 36 150 196 213 218 207 154 226 150 232 349 293 353 6 343 64 28 91 169 156 331
275 277 282 276 276 277 283 290 295 297 299 305 309 316 323 324 322 318 279 305 230 256 295 285 287 313 310 356 329 319 305 322 158 308 317 139 202 191 277 111 27 177 200 310 12 101 173 64 72 85 44 340 338 350
270 275 272 264 266 272 279 287 290 293 296 303 306 311 318 315 309 286 300 312 297 253 253 225 289 318 212 244 61 320 7 356 337 340 305 297 63 330 29 178 263 184 255 244 228 141 105 94 115 83 29 6 332 353
264 269 258 257 261 268 277 284 287 290 294 299 303 307 311 306 300 284 281 303 300 280 278 182 344 279 195 156 202 220 312 321 282 265 270 285 89 162 219 221 235 197 194 288 42 49 44 95 57 29 1 10 354 334
260 253 251 253 258 266 275 281 285 289 292 296 300 305 308 307 304 283 264 253 241 271 316 275 214 241 185 207 218 226 292 293 298 290 282 284 99 264 318 263 28 32 25 34 64 67 26 74 27 22 8 2 350 335
244 243 246 249 256 264 274 280 286 289 289 295 299 303 304 308 321 283 270 172 213 248 268 275 181 177 190 209 228 237 265 248 287 313 336 356 96 319 287 80 58 63 70 15 75 90 56 7 329 29 354 324 304 300
232 237 242 247 252 272 281 280 283 286 289 294 297 299 297 294 277 254 317 349 356 301 241 250 259 196 189 202 235 241 235 351 300 146 65 282 13 316 295 346 29 348 85 62 51 33 339 26 357 345 310 300 295 299
228 231 237 237 251 266 273 277 280 284 290 294 296 293 288 282 259 270 242 230 209 268 264 255 262 215 169 223 214 117 33 278 255 79 298 159 256 170 42 36 304 306 53 45 23 316 298 328 336 359 359 351 336 317
224 226 228 237 248 259 270 274 279 286 291 293 293 294 267 213 231 265 77 116 183 292 300 241 257 285 177 244 335 69 210 260 357 33 216 169 232 58 194 177 248 275 33 21 2 11 14 3 350 353 342 329 325 328
220 222 229 239 253 260 266 271 281 287 287 291 271 224 224 180 116 139 148 180 194 225 223 275 297 290 212 168 156 70 360 334 235 255 170 251 74 21 316 278 47 44 35 29 11 0 353 343 327 317 314 324 321 327
216 221 236 248 254 258 262 270 281 301 271 218 216 247 72 18 208 213 220 209 195 219 207 224 243 270 303 313 76 195 205 217 242 96 345 47 96 166 205 111 76 41 20 6 358 348 356 5 7 11 2 354 349 356
217 232 242 249 253 256 261 262 258 252 311 333 281 268 218 211 219 219 236 211 228 223 253 225 207 200 155 16 243 176 254 205 148 29 305 61 36 31 349 337 60 16 341 344 32 11 5 257 324 357 343 357 292 324
233 242 247 251 254 256 256 251 230 270 300 253 225 235 188 201 342 225 228 229 202 225 143 220 213 223 144 245 285 289 306 10 346 20 60 25 295 193 177 242 13 10 34 29 20 29 355 355 2 3 6 8 6 13
247 250 253 255 254 250 247 241 241 236 240 242 204 294 207 198 202 237 238 269 20 139 126 144 100 235 97 219 252 27 176 254 66 41 81 200 20 22 27 24 37 29 26 19 12 11 10 8 22 32 23 22 25 19
253 256 260 264 246 240 230 216 209 207 269 242 243 174 227 232 236 174 80 300 87 52 85 237 168 213 248 254 244 70 268 111 36 73 104 289 45 36 30 26 27 23 16 13 16 46 30 22 20 15 17 17 12 6
263 276 230 215 213 204 173 176 183 230 241 238 241 240 217 227 219 271 214 104 88 92 59 298 285 316 253 239 49 35 7 20 128 84 68 36 44 36 33 35 39 41 33 23 28 31 24 16 8 7 4 6 2 1
233 255 132 141 137 143 183 205 188 217 249 226 246 227 253 248 131 58 52 62 18 294 236 236 217 68 28 30 68 63 322 59 83 75 67 59 51 42 41 41 30 27 26 18 15 19 15 2 358 3 1 358 351 355
250 134 133 155 173 142 162 223 240 222 222 240 246 233 59 335 107 90 68 30 296 247 276 39 56 43 63 39 16 39 62 75 68 65 57 49 41 37 30 32 29 14 20 18 14 9 7 0 2 360 344 359 346 341
43 105 124 172 227 238 177 197 235 225 227 212 330 127 107 108 81 60 65 96 38 24 20 56 51 45 54 351 24 21 35 44 72 67 61 49 37 32 23 11 15 18 15 8 359 358 355 344 14 6 358 350 340 354
247 253 219 187 194 246 211 138 75 298 250 157 189 111 96 81 71 56 39 33 36 46 47 44 50 30 53 35 37 35 33 30 22 47 36 31 17 19 22 9 12 12 350 346 14 10 353 4 10 3 353 355 356 346
164 138 145 181 190 234 319 252 217 340 101 141 124 90 78 69 65 59 53 34 45 32 56 102 105 71 61 44 35 39 42 37 49 41 15 15 357 9 4 349 350 352 359 17 5 356 3 12 5 353 351 358 350 351
90 171 156 184 236 201 239 293 229 149 103 152 153 120 124 112 94 62 82 46 62 21 24 37 60 72 63 50 47 37 21 35 43 33 7 337 358 360 4 9 360 7 6 16 354 356 1 5 5 347 347 345 340 347
148 189 214 171 14 17 241 244 141 210 172 178 97 113 107 76 90 100 76 57 77 18 27 32 46 58 62 56 41 29 7 357 18 28 17 353 358 7 358 7 11 8 16 0 347 357 355 347 354 341 348 342 345 344
58 246 230 153 191 169 161 208 196 213 183 196 126 125 146 127 113 76 78 73 79 40 33 19 8 49 50 34 22 31 4 2 2 4 26 355 355 3 4 13 5 16 27 349 342 350 349 344 340 346 346 335 341 341
81 308 139 287 182 167 184 194 199 190 190 149 56 158 84 70 80 72 85 103 80 59 40 39 50 45 26 354 27 36 33 9 1 356 14 356 355 0 8 5 359 7 23 346 335 340 347 338 336 342 337 337 338 335
73 177 158 176 192 211 180 185 184 189 190 97 102 80 74 72 73 76 83 115 100 77 54 34 13 337 24 24 17 17 22 15 4 1 359 351 9 4 3 353 350 355 6 334 327 344 338 333 336 339 335 335 333 329
182 169 205 265 205 196 167 156 191 193 72 46 71 82 76 71 81 83 106 91 118 125 88 338 286 322 12 3 10 20 29 22 23 354 348 348 16 10 10 351 347 6 339 324 339 338 331 334 338 335 332 330 329 330
210 185 160 66 56 24 35 46 34 17 39 6 68 36 49 53 87 86 107 152 140 192 238 240 254 350 15 0 6 9 22 24 7 0 353 358 7 8 4 348 349 352 330 330 330 334 341 342 334 329 330 328 329 330
104 89 75 54 65 47 28 35 23 36 339 324 76 76 80 58 94 118 140 159 202 247 268 25 36 15 8 3 25 23 6 25 354 355 351 357 349 350 356 349 345 340 326 326 338 342 345 336 323 330 328 328 329 326
56 70 89 41 49 56 30 25 26 37 53 69 90 102 88 85 98 133 155 204 202 52 26 16 13 31 13 5 0 7 12 26 359 356 353 350 338 345 349 343 338 325 329 339 336 335 332 330 334 335 330 328 327 327
104 81 67 85 91 100 99 92 79 72 73 83 94 97 105 117 147 174 195 285 66 72 26 14 17 34 11 5 352 352 358 357 347 352 13 341 343 348 342 335 321 329 339 336 333 327 328 333 334 332 329 331 327 328
80 103 112 118 130 142 114 84 77 99 101 100 101 110 118 92 79 18 3 18 37 58 56 12 3 12 13 348 355 358 22 331 339 4 344 345 343 340 337 324 329 336 331 330 324 329 336 337 334 332 329 328 333 332
97 105 112 121 146 143 118 113 103 110 80 73 63 47 39 56 91 81 273 149 53 43 31 9 351 355 353 349 354 348 346 340 4 336 135 232 255 285 311 324 331 329 323 328 334 336 336 336 334 331 333 332 333 335